Location: Black River Observatory
(43.1000°N, 82.6200°W)
Time: 08:59:46
(UTC-04:00)

Daily predictions for brighter satellites

Satellite Brightness Start Highest point End
(mag) Time Altitude Azimuth Time Altitude Azimuth Time Altitude Azimuth
Meteor 2-4 Rocket 4.0 21:21:30 10° S 21:27:10 55° E 21:32:56 10° NNE
Cosmos 2333 Rocket 3.1 21:24:36 10° SW 21:30:08 56° WNW 21:35:42 10° NNE
Cosmos 1461 4.0 21:26:23 10° NNW 21:30:21 33° NE 21:34:07 10° ESE
Cosmos 2251 Rocket 3.6 21:25:53 10° SSW 21:31:11 84° ESE 21:36:35 10° NNE
deb Chang Zheng 4 3.7 21:27:29 10° NNE 21:31:51 58° ESE 21:36:09 10° S
Cosmos 2297 3.8 21:26:15 10° NNW 21:32:00 89° ENE 21:37:44 10° SSE
Milstar 3 Cent rocket 4.1 21:29:09 10° WSW 21:34:30 19° SSW 21:38:22 10° SSE
ATLAS 3B R/B 4.5 21:32:20 10° SE 21:35:10 12° ESE 21:37:59 10° E
Cosmos 2034 Rocket 4.4 21:30:18 10° N 21:36:29 49° ENE 21:42:35 10° SSE
PSLV R/B 4.2 21:37:16 10° SE 21:40:02 30° ENE 21:42:50 10° N
CZ-2C R/B 1.2 21:37:49 10° S 21:40:05 50° W 21:42:22 10° NNW
H-2A R/B 4.0 21:37:23 10° S 21:41:08 42° W 21:44:56 10° NNW
ERS-1 Rocket 3.1 21:39:14 10° S 21:44:14 79° WSW 21:49:18 10° NNW
BREEZE-M DEB (TANK) 3.4 21:40:02 10° SW 21:44:48 31° SSE 21:47:03 10° E
Envisat 3.2 21:40:26 10° SSE 21:45:23 56° ENE 21:50:22 10° N
Cosmos 1606 Rocket 4.3 21:41:32 10° NNW 21:45:55 57° W 21:50:13 10° S
Cosmos 1110 Rocket 4.3 21:40:43 10° NNW 21:46:00 69° WSW 21:51:13 10° S
USA 234 3.5 21:43:40 10° ESE 21:50:09 67° NE 21:56:41 10° NW
YAOGAN 6 4.0 21:50:25 12° ESE 21:53:14 25° ENE 21:56:21 10° NNE
H-2A R/B 2.3 21:49:45 10° S 21:53:57 70° WSW 21:58:18 10° NNW
Abrixas rocket 2.4 21:57:38 10° WNW 22:01:02 66° SSW 22:03:38 16° SE
MetOp-A 4.4 21:56:20 11° SSE 22:01:23 55° ENE 22:06:37 10° N
Cosmos 1626 Rocket 3.7 21:58:57 10° S 22:03:17 56° E 22:07:38 10° NNE
ATLAS CENTAUR R/B 3.4 21:58:46 10° WSW 22:03:28 40° NW 22:08:15 10° NNE
Cosmos 2237 Rocket 4.2 22:01:47 10° WSW 22:06:49 33° NW 22:11:53 10° N
Atlas Centaur 2 3.9 22:06:21 10° SW 22:12:35 26° SSE 22:18:15 13° ESE
Cosmos 2278 Rocket 4.3 22:08:35 10° NW 22:12:52 22° W 22:17:09 10° SSW
Meteor 1-15 Rocket 4.5 22:10:22 10° NNW 22:15:55 69° W 22:21:31 10° S
Cosmos 2228 3.5 22:12:24 10° NNW 22:16:46 62° W 22:21:07 10° S
PSLV R/B 4.2 22:17:58 10° SW 22:21:05 29° SSE 22:22:27 22° ESE
Aureole 2 Rocket 3.1 22:18:06 10° SSW 22:22:03 64° WNW 22:25:39 10° NNE
H-2A R/B 3.4 22:19:20 14° ESE 22:22:18 24° ENE 22:26:15 10° NNE
Cosmos 1939 Rocket 3.9 22:19:13 10° S 22:23:12 45° W 22:27:13 10° NNW
COSMOS 2455 3.1 22:17:40 10° S 22:23:20 45° ESE 22:29:01 10° NE
CZ-4 R/B 4.4 22:19:02 10° NNE 22:23:46 42° E 22:27:22 16° SSE
Cosmos 2369 Rocket 3.1 22:22:24 10° N 22:27:39 37° ENE 22:31:20 18° ESE
SPOT 1/Viking Rocket 3.6 22:26:44 18° SSE 22:30:34 71° ENE 22:35:43 10° N
Cosmos 1666 4.0 22:27:11 10° NNW 22:30:51 39° W 22:34:30 10° SSW
SPOT 5 3.1 22:26:56 12° S 22:31:01 58° WSW 22:35:18 10° NNW
ARGOS 3.3 22:29:23 20° SE 22:33:09 60° ENE 22:38:31 10° N
SL-16 R/B 3.5 22:28:23 10° SW 22:33:43 42° WNW 22:39:06 10° NNE
Lacrosse 5 rocket 3.5 22:34:14 10° W 22:37:41 28° NNW 22:41:18 10° NNE
Geosat 4.3 22:33:46 10° NE 22:38:34 43° ESE 22:42:04 17° S
NOAA 11 4.3 22:37:27 22° SSE 22:40:58 64° ENE 22:46:21 10° N
Tsikada Rocket 4.2 22:35:58 10° SSW 22:42:23 76° W 22:48:48 10° N
Landsat 7 4.4 22:40:04 24° SE 22:42:32 44° ENE 22:47:02 10° N
DEBRIS 3.6 22:40:56 10° WNW 22:44:33 25° SW 22:45:18 22° SSW
SeaSat 1 3.7 22:50:09 14° S 22:53:51 34° WSW 22:58:21 10° NW
Lacrosse 4 Rocket 2.7 22:55:02 22° E 22:55:02 22° E 22:57:39 10° NE
Cosmos 1758 Rocket 4.2 22:53:08 31° SE 22:54:23 38° E 22:58:27 10° NNE
SL-08 RB Rocket 3.6 22:55:15 29° SSE 22:57:34 84° ENE 23:02:08 10° NNW
CZ-4B R/B 3.9 22:52:43 10° N 22:57:44 66° WNW 23:02:50 10° SSW
Terra 2.4 22:56:20 28° ESE 22:58:19 44° ENE 23:02:51 10° N
CARTOSAT-1 4.1 22:57:34 31° ESE 22:59:07 45° ENE 23:03:15 10° N
Cosmos 1515 3.9 22:58:52 23° SSW 23:01:12 72° W 23:05:04 10° N
Cosmos 1066 Rocket 4.2 22:57:30 22° S 23:01:17 72° E 23:07:05 10° NNE
Cosmos 1603 4.2 22:56:50 10° SW 23:02:23 61° WNW 23:07:57 10° NNE
Cosmos 1346 Rocket 2.9 23:03:05 42° SE 23:03:59 53° E 23:07:49 10° NNE
Cosmos 1461 4.4 23:05:49 10° NW 23:09:27 27° WSW 23:11:08 21° SSW
Cosmos 2142 Rocket 4.5 23:05:38 10° N 23:11:59 86° W 23:15:39 27° S
Cosmos 1825 Rocket 3.6 23:10:25 26° SSW 23:12:52 79° W 23:17:20 10° N
Cosmos 1758 4.4 23:17:36 10° NNE 23:21:17 31° ENE 23:21:45 30° E
Meteor 1-21 4.3 23:19:01 33° SSE 23:21:33 63° E 23:27:17 10° NNE
Cosmos 1842 3.7 23:23:02 42° E 23:23:06 42° E 23:26:50 10° NNE
Cosmos 1634 Rocket 4.2 23:18:10 10° NNW 23:24:17 67° W 23:27:55 26° S
ATLAS 3B R/B 2.9 23:17:02 10° SSW 23:24:38 65° ESE 23:32:05 10° NE
Cosmos 1943 3.1 23:23:34 18° SSW 23:27:54 89° WNW 23:33:39 10° NNE
Cosmos 407 Rocket 3.4 23:27:24 35° S 23:29:36 73° ESE 23:34:50 10° NNE
USA 234 4.0 23:30:35 27° S 23:33:23 39° SW 23:39:28 10° WNW
Cosmos 1943 Rocket 2.5 23:34:56 10° NNW 23:40:23 54° ENE 23:42:15 37° ESE
Cosmos 1766 3.3 23:37:40 10° NNW 23:41:41 73° W 23:42:13 62° SSW
Cosmos 489 Rocket 4.5 23:42:47 25° SSW 23:46:43 85° WNW 23:53:08 10° NNE
Cosmos 1954 Rocket 4.0 23:47:02 50° SSE 23:48:08 62° ESE 23:53:23 10° NNE
Cosmos 2279 Rocket 4.1 23:43:50 10° NNW 23:50:03 72° W 23:52:42 36° S
CZ-4B R/B 4.1 23:50:30 13° ENE 23:50:39 13° ENE 23:52:18 10° NE
